EW3693 Weather Reports


Display with metric or nautical units.
time (UTC)temp
F
wind
direction
speed
MPH
gust
MPH
rain 1hr
in
rain 24hr
in
rain mn
in
humidity
%
barometer
mb
20190422235026 55 90 11.0 21.0 0.00 0.00 0.00 61 1012.2
20190422234025 55 90 12.0 18.0 0.00 0.00 0.00 61 1012.3
20190422233028 55 90 12.0 19.0 0.00 0.00 0.00 61 1012.2
20190422232026 55 90 12.0 23.0 0.00 0.00 0.00 60 1012.4
20190422231025 55 90 12.0 20.0 0.00 0.00 0.00 60 1012.5
20190422230026 55 90 12.0 20.0 0.00 0.00 0.00 59 1012.6
20190422225026 55 90 11.0 18.0 0.00 0.00 0.00 59 1012.6
20190422224026 55 90 10.0 17.0 0.00 0.00 0.00 59 1012.6
20190422223025 54 90 10.0 17.0 0.00 0.00 0.00 59 1012.7
20190422222026 54 90 7.0 13.0 0.00 0.00 0.00 58 1012.8
20190422221025 54 67 9.0 15.0 0.00 0.00 0.00 58 1013.0
20190422220026 55 90 10.0 16.0 0.00 0.00 0.00 56 1013.0
20190422215025 55 90 8.0 13.0 0.00 0.00 0.00 56 1013.1
20190422214026 55 90 9.0 16.0 0.00 0.00 0.00 55 1013.2
20190422213026 55 90 8.0 15.0 0.00 0.00 0.00 54 1013.3
20190422212025 55 90 9.0 14.0 0.00 0.00 0.00 53 1013.4
20190422211025 55 90 7.0 12.0 0.00 0.00 0.00 52 1013.5
20190422210026 55 90 8.0 12.0 0.00 0.00 0.00 52 1013.6
20190422205025 55 90 9.0 14.0 0.00 0.00 0.00 51 1013.7
20190422204025 56 90 10.0 17.0 0.00 0.00 0.00 51 1013.7
20190422203025 56 112 8.0 15.0 0.00 0.00 0.00 50 1013.8
20190422202025 56 90 10.0 15.0 0.00 0.00 0.00 49 1013.8
20190422201025 56 90 8.0 16.0 0.00 0.00 0.00 49 1013.8
20190422200025 56 90 8.0 15.0 0.00 0.00 0.00 48 1013.8
20190422195025 57 112 10.0 15.0 0.00 0.00 0.00 47 1013.8
20190422194026 57 112 9.0 13.0 0.00 0.00 0.00 46 1013.8
20190422193028 58 90 9.0 16.0 0.00 0.00 0.00 46 1013.8
20190422192027 58 112 9.0 17.0 0.00 0.00 0.00 46 1013.8
20190422191027 58 112 10.0 18.0 0.00 0.00 0.00 46 1013.7
20190422190027 58 112 9.0 16.0 0.00 0.00 0.00 50 1013.5
20190422185027 58 90 8.0 14.0 0.00 0.00 0.00 52 1013.3
20190422184027 59 90 9.0 17.0 0.00 0.00 0.00 53 1013.1
20190422183027 60 67 9.0 16.0 0.00 0.00 0.00 52 1013.0
20190422182027 61 90 11.0 20.0 0.00 0.00 0.00 45 1012.8
20190422181029 61 90 10.0 17.0 0.00 0.00 0.00 45 1012.7
20190422180027 62 90 11.0 17.0 0.00 0.00 0.00 44 1012.7
20190422175028 62 90 10.0 17.0 0.00 0.00 0.00 43 1012.7
20190422174025 62 90 11.0 21.0 0.00 0.00 0.00 43 1012.7
20190422173027 63 90 11.0 20.0 0.00 0.00 0.00 42 1012.7
20190422172027 63 90 13.0 24.0 0.00 0.00 0.00 41 1012.6
20190422171027 63 90 13.0 24.0 0.00 0.00 0.00 41 1012.7
20190422170027 63 112 11.0 21.0 0.00 0.00 0.00 43 1012.6
20190422165027 64 90 12.0 23.0 0.00 0.00 0.00 42 1012.7
20190422164027 64 90 11.0 19.0 0.00 0.00 0.00 42 1012.8
20190422163027 64 90 13.0 21.0 0.00 0.00 0.00 42 1012.8
20190422162027 64 90 11.0 19.0 0.00 0.00 0.00 42 1012.8
20190422161028 64 67 14.0 25.0 0.00 0.00 0.00 41 1012.9
20190422160027 64 90 12.0 19.0 0.00 0.00 0.00 40 1012.9
20190422155027 64 90 13.0 22.0 0.00 0.00 0.00 39 1012.9
20190422154027 65 90 12.0 21.0 0.00 0.00 0.00 39 1012.9
20190422153040 65 90 12.0 19.0 0.00 0.00 0.00 37 1013.0
20190422152026 66 90 12.0 22.0 0.00 0.00 0.00 37 1013.0
20190422151027 66 90 12.0 18.0 0.00 0.00 0.00 35 1013.0
20190422150027 66 67 11.0 21.0 0.00 0.00 0.00 34 1013.2
20190422145026 66 90 12.0 22.0 0.00 0.00 0.00 34 1013.3
20190422144027 67 90 8.0 17.0 0.00 0.00 0.00 34 1013.4
20190422143027 66 67 13.0 20.0 0.00 0.00 0.00 34 1013.5
20190422141027 66 90 11.0 19.0 0.00 0.00 0.00 33 1013.7
20190422140027 66 67 11.0 19.0 0.00 0.00 0.00 33 1013.7
20190422135027 67 90 10.0 16.0 0.00 0.00 0.00 35 1013.7
20190422134027 66 90 11.0 17.0 0.00 0.00 0.00 35 1013.8
20190422133027 67 67 11.0 18.0 0.00 0.00 0.00 36 1013.9
20190422132027 66 90 11.0 18.0 0.00 0.00 0.00 35 1014.0
20190422131027 66 90 11.0 19.0 0.00 0.00 0.00 36 1014.1
20190422130026 66 90 10.0 17.0 0.00 0.00 0.00 38 1014.3
20190422125027 66 67 10.0 18.0 0.00 0.00 0.00 37 1014.4
20190422124026 66 67 9.0 18.0 0.00 0.00 0.00 37 1014.4
20190422123027 66 112 9.0 16.0 0.00 0.00 0.00 36 1014.6
20190422122028 66 90 8.0 13.0 0.00 0.00 0.00 35 1014.8
20190422121026 66 90 9.0 21.0 0.00 0.00 0.00 34 1014.8
20190422120026 66 90 8.0 17.0 0.00 0.00 0.00 33 1014.8
20190422115026 65 90 6.0 12.0 0.00 0.00 0.00 35 1014.9
20190422114026 66 90 7.0 13.0 0.00 0.00 0.00 36 1015.0
20190422113026 65 90 9.0 16.0 0.00 0.00 0.00 36 1015.1
20190422112027 65 67 9.0 18.0 0.00 0.00 0.00 35 1015.2
20190422111026 66 90 9.0 15.0 0.00 0.00 0.00 35 1015.2
20190422110026 65 112 10.0 17.0 0.00 0.00 0.00 35 1015.3
20190422105026 65 90 11.0 17.0 0.00 0.00 0.00 33 1015.4
20190422104026 65 90 11.0 19.0 0.00 0.00 0.00 33 1015.6
20190422103028 65 67 12.0 20.0 0.00 0.00 0.00 33 1015.6
20190422102027 64 67 11.0 17.0 0.00 0.00 0.00 35 1015.7
20190422101026 64 90 7.0 11.0 0.00 0.00 0.00 36 1015.8
20190422100026 64 90 5.0 18.0 0.00 0.00 0.00 37 1015.9
20190422095026 63 90 8.0 17.0 0.00 0.00 0.00 36 1016.0
20190422094026 63 90 8.0 15.0 0.00 0.00 0.00 35 1016.2
20190422093027 63 90 10.0 18.0 0.00 0.00 0.00 35 1016.1
20190422092032 63 90 10.0 16.0 0.00 0.00 0.00 34 1016.1
20190422091026 62 112 7.0 12.0 0.00 0.00 0.00 38 1016.2
20190422090027 62 112 9.0 14.0 0.00 0.00 0.00 36 1016.3
20190422085026 62 135 9.0 13.0 0.00 0.00 0.00 39 1016.4
20190422084026 60 135 10.0 17.0 0.00 0.00 0.00 39 1016.4
20190422083028 60 135 12.0 18.0 0.00 0.00 0.00 38 1016.4
20190422082026 60 90 10.0 16.0 0.00 0.00 0.00 37 1016.5
20190422081027 60 112 10.0 18.0 0.00 0.00 0.00 38 1016.5
20190422080026 59 112 9.0 15.0 0.00 0.00 0.00 40 1016.6
20190422075026 59 135 10.0 16.0 0.00 0.00 0.00 41 1016.6
20190422074026 59 112 8.0 15.0 0.00 0.00 0.00 41 1016.6
20190422073026 58 112 9.0 17.0 0.00 0.00 0.00 40 1016.5
20190422072026 58 135 5.0 10.0 0.00 0.00 0.00 45 1016.6
20190422071026 57 135 4.0 9.0 0.00 0.00 0.00 44 1016.6
20190422070027 57 112 3.0 8.0 0.00 0.00 0.00 44 1016.5
20190422065026 56 112 4.0 9.0 0.00 0.00 0.00 46 1016.6
20190422064026 55 112 3.0 9.0 0.00 0.00 0.00 48 1016.6
20190422063025 55 135 4.0 10.0 0.00 0.00 0.00 47 1016.6
20190422062025 54 112 3.0 8.0 0.00 0.00 0.00 48 1016.6
20190422061026 53 112 3.0 8.0 0.00 0.00 0.00 50 1016.6
20190422060025 53 112 3.0 7.0 0.00 0.00 0.00 51 1016.5
20190422055025 52 112 2.0 7.0 0.00 0.00 0.00 52 1016.6
20190422054026 51 90 4.0 9.0 0.00 0.00 0.00 53 1016.5
20190422053027 50 90 2.0 7.0 0.00 0.00 0.00 59 1016.5
20190422052026 49 90 1.0 4.0 0.00 0.00 0.00 62 1016.5
20190422051026 48 0.0 4.0 0.00 0.00 0.00 66 1016.5
20190422050026 47 90 1.0 4.0 0.00 0.00 0.00 67 1016.5
20190422045027 46 112 2.0 4.0 0.00 0.00 0.00 68 1016.5
20190422044026 45 90 2.0 5.0 0.00 0.00 0.00 71 1016.4
20190422043026 43 90 1.0 3.0 0.00 0.00 0.00 74 1016.4
20190422042026 43 0.0 2.0 0.00 0.00 0.00 74 1016.3
20190422041026 43 90 1.0 4.0 0.00 0.00 0.00 74 1016.4
20190422040026 42 90 1.0 2.0 0.00 0.00 0.00 75 1016.5
20190422035025 42 0.0 2.0 0.00 0.00 0.00 75 1016.5
20190422034026 43 90 1.0 4.0 0.00 0.00 0.00 74 1016.5
20190422033026 43 90 1.0 3.0 0.00 0.00 0.00 73 1016.6
20190422032025 43 90 2.0 4.0 0.00 0.00 0.00 73 1016.7
20190422031026 43 90 1.0 4.0 0.00 0.00 0.00 74 1016.7
20190422030025 42 90 1.0 4.0 0.00 0.00 0.00 74 1016.8
20190422025025 44 90 1.0 3.0 0.00 0.00 0.00 73 1016.8
20190422024026 45 90 1.0 3.0 0.00 0.00 0.00 70 1016.9
20190422023025 46 90 1.0 3.0 0.00 0.00 0.00 69 1016.9
20190422022024 46 90 1.0 3.0 0.00 0.00 0.00 68 1017.0
20190422021024 46 90 1.0 3.0 0.00 0.00 0.00 67 1017.0
20190422020025 46 0.0 3.0 0.00 0.00 0.00 66 1017.0
20190422015024 48 90 1.0 3.0 0.00 0.00 0.00 64 1017.1
20190422014024 48 90 2.0 4.0 0.00 0.00 0.00 62 1017.1
20190422013025 48 90 2.0 4.0 0.00 0.00 0.00 61 1017.1
20190422012027 49 90 1.0 4.0 0.00 0.00 0.00 59 1017.2
20190422011026 49 90 2.0 6.0 0.00 0.00 0.00 57 1017.2
20190422010027 49 112 1.0 4.0 0.00 0.00 0.00 58 1017.3
20190422005026 49 112 1.0 4.0 0.00 0.00 0.00 60 1017.3
20190422004027 48 112 1.0 3.0 0.00 0.00 0.00 63 1017.3
20190422003027 48 0.0 0.0 0.00 0.00 0.00 62 1017.4
20190422002026 49 0.0 2.0 0.00 0.00 0.00 61 1017.5
20190422001026 49 0.0 2.0 0.00 0.00 0.00 61 1017.5
20190422000026 48 0.0 4.0 0.00 0.00 0.00 64 1017.6